QPF
0.00 0.00 0.00 0.00 0.00 0.01 0.00 0.00 0.00 0.00 0.00 0.00 0.00 0.00 0.03 0.12 0.01 0.00 0.00 0.00 0.00 0.00 0.00 0.00 0.00 0.00 0.00 0.00 0.00 0.00 0.00 0.00 0.00 0.00 0.00 0.00 0.00 0.00 0.01 0.00 0.01 0.00 0.00 0.00 0.00 0.01 0.03 0.03 0.03
0.01 0.04 0.03 0.01 0.00 0.04 0.02 0.00 0.00 0.00 0.00 0.00 0.00 0.00 0.00 0.02 0.04 0.00 0.00 0.00 0.00 0.00 0.00 0.00 0.01 0.00 0.00 0.00 0.00 0.00 0.00 0.00 0.00 0.00 0.00 0.00 0.01 0.03 0.01 0.02 0.05 0.06 0.01 0.00 0.00 0.00 0.00 0.00 0.03
0.06 0.08 0.01 0.04 0.02 0.01 0.00 0.00 0.00 0.00 0.00 0.00 0.00 0.00 0.00 0.00 0.00 0.00 0.00 0.00 0.00 0.00 0.00 0.00 0.00 0.00 0.00 0.00 0.00 0.00 0.00 0.00 0.00 0.00 0.00 0.00 0.01 0.04 0.05 0.06 0.04 0.01 0.01 0.00 0.00 0.00 0.00 0.00 0.00
0.05 0.02 0.02 0.07 0.19 0.02 0.00 0.04 0.01 0.00 0.00 0.00 0.00 0.00 0.00 0.00 0.00 0.00 0.00 0.00 0.00 0.00 0.00 0.00 0.00 0.00 0.00 0.00 0.00 0.00 0.00 0.00 0.00 0.00 0.00 0.00 0.00 0.00 0.02 0.02 0.02 0.00 0.00 0.00 0.00 0.00 0.00 0.00 0.00
0.12 0.12 0.10 0.20 0.10 0.02 0.00 0.02 0.01 0.00 0.00 0.00 0.00 0.00 0.00 0.00 0.00 0.00 0.00 0.00 0.00 0.00 0.00 0.00 0.00 0.00 0.00 0.00 0.00 0.00 0.00 0.00 0.00 0.00 0.00 0.00 0.00 0.00 0.02 0.02 0.03 0.00 0.00 0.00 0.00 0.00 0.00 0.00 0.00
0.23 0.18 0.18 0.23 0.30 0.03 0.00 0.03 0.01 0.00 0.00 0.00 0.00 0.00 0.00 0.00 0.00 0.00 0.00 0.00 0.00 0.00 0.00 0.00 0.00 0.00 0.00 0.00 0.00 0.00 0.00 0.00 0.00 0.00 0.00 0.00 0.00 0.00 0.03 0.03 0.00 0.00 0.00 0.00 0.00 0.00 0.00 0.00 0.00
0.41 0.39 0.02 0.33 0.11 0.13 0.00 0.03 0.00 0.00 0.00 0.00 0.00 0.00 0.00 0.01 0.00 0.00 0.00 0.00 0.00 0.00 0.00 0.00 0.00 0.00 0.01 0.00 0.00 0.00 0.00 0.00 0.00 0.00 0.00 0.00 0.00 0.00 0.00 0.00 0.00 0.00 0.00 0.00 0.00 0.00 0.00 0.00 0.00
1.08 0.46 0.01 0.10 0.08 0.22 0.09 0.05 0.00 0.00 0.00 0.00 0.00 0.00 0.00 0.00 0.00 0.00 0.00 0.00 0.00 0.00 0.00 0.00 0.00 0.03 0.14 0.00 0.00 0.00 0.00 0.00 0.00 0.00 0.02 0.02 0.00 0.00 0.00 0.00 0.00 0.00 0.00 0.00 0.00 0.00 0.00 0.00 0.00
0.44 0.31 0.02 0.04 0.04 0.04 0.14 0.09 0.01 0.00 0.00 0.00 0.00 0.00 0.00 0.00 0.00 0.00 0.00 0.00 0.00 0.00 0.00 0.00 0.00 0.00 0.03 0.01 0.00 0.00 0.00 0.00 0.00 0.00 0.00 0.02 0.01 0.00 0.00 0.00 0.00 0.00 0.00 0.00 0.00 0.00 0.00 0.00 0.00
0.02 0.01 0.03 0.04 0.00 0.03 0.06 0.06 0.00 0.01 0.00 0.00 0.00 0.00 0.00 0.00 0.00 0.00 0.00 0.00 0.00 0.00 0.00 0.00 0.00 0.00 0.00 0.01 0.00 0.00 0.00 0.00 0.00 0.00 0.00 0.00 0.01 0.00 0.00 0.00 0.00 0.00 0.00 0.00 0.00 0.00 0.00 0.00 0.01
0.00 0.04 0.05 0.04 0.02 0.02 0.07 0.03 0.02 0.01 0.00 0.00 0.00 0.00 0.00 0.00 0.00 0.00 0.00 0.00 0.00 0.00 0.00 0.00 0.00 0.00 0.00 0.00 0.00 0.00 0.00 0.00 0.00 0.00 0.00 0.02 0.00 0.00 0.00 0.00 0.00 0.00 0.00 0.00 0.00 0.00 0.00 0.00 0.01
0.00 0.02 0.01 0.00 0.01 0.03 0.03 0.00 0.02 0.00 0.00 0.00 0.00 0.00 0.00 0.00 0.00 0.00 0.00 0.00 0.00 0.00 0.00 0.00 0.00 0.00 0.00 0.00 0.00 0.00 0.00 0.00 0.01 0.02 0.03 0.03 0.00 0.00 0.00 0.00 0.00 0.00 0.00 0.00 0.00 0.00 0.01 0.00 0.00
0.01 0.05 0.04 0.00 0.01 0.00 0.00 0.00 0.00 0.02 0.00 0.00 0.00 0.00 0.00 0.00 0.00 0.00 0.00 0.00 0.00 0.00 0.00 0.00 0.00 0.00 0.00 0.00 0.00 0.00 0.00 0.00 0.01 0.00 0.00 0.00 0.01 0.00 0.00 0.00 0.00 0.00 0.00 0.00 0.01 0.00 0.01 0.02 0.04
0.02 0.08 0.01 0.00 0.03 0.04 0.02 0.08 0.02 0.01 0.00 0.00 0.00 0.00 0.00 0.00 0.00 0.00 0.00 0.00 0.00 0.00 0.00 0.00 0.00 0.00 0.00 0.00 0.00 0.00 0.00 0.00 0.00 0.00 0.00 0.00 0.00 0.00 0.00 0.00 0.00 0.00 0.00 0.00 0.00 0.00 0.01 0.00 0.00
0.04 0.11 0.08 0.03 0.01 0.02 0.10 0.19 0.04 0.00 0.05 0.02 0.00 0.00 0.00 0.00 0.00 0.00 0.00 0.00 0.00 0.00 0.00 0.00 0.00 0.00 0.00 0.00 0.00 0.00 0.00 0.00 0.00 0.00 0.01 0.01 0.02 0.01 0.00 0.00 0.00 0.00 0.01 0.00 0.00 0.00 0.00 0.00 0.00
0.24 0.08 0.01 0.05 0.17 0.01 0.02 0.04 0.03 0.02 0.08 0.05 0.00 0.00 0.00 0.00 0.00 0.00 0.00 0.00 0.00 0.00 0.00 0.00 0.00 0.00 0.00 0.00 0.00 0.00 0.00 0.00 0.01 0.00 0.01 0.01 0.00 0.00 0.00 0.00 0.00 0.00 0.00 0.00 0.00 0.00 0.00 0.00 0.00
0.04 0.04 0.00 0.00 0.03 0.00 0.00 0.00 0.02 0.02 0.05 0.04 0.00 0.00 0.01 0.01 0.00 0.00 0.00 0.00 0.00 0.00 0.00 0.00 0.00 0.00 0.00 0.00 0.00 0.01 0.00 0.00 0.02 0.02 0.00 0.00 0.00 0.00 0.00 0.00 0.00 0.00 0.00 0.00 0.00 0.00 0.00 0.00 0.00
0.00 0.01 0.00 0.00 0.00 0.00 0.00 0.00 0.00 0.00 0.03 0.05 0.04 0.00 0.00 0.01 0.00 0.00 0.00 0.00 0.00 0.00 0.00 0.00 0.00 0.00 0.00 0.00 0.01 0.03 0.00 0.01 0.06 0.01 0.00 0.00 0.00 0.00 0.00 0.00 0.00 0.01 0.00 0.00 0.00 0.00 0.00 0.00 0.00
0.00 0.00 0.00 0.00 0.00 0.01 0.02 0.00 0.00 0.00 0.01 0.04 0.06 0.01 0.00 0.01 0.00 0.00 0.00 0.00 0.00 0.00 0.00 0.00 0.00 0.00 0.00 0.00 0.00 0.00 0.00 0.02 0.01 0.02 0.00 0.00 0.00 0.00 0.00 0.00 0.00 0.00 0.00 0.01 0.01 0.00 0.00 0.00 0.00
0.00 0.00 0.00 0.00 0.01 0.04 0.14 0.09 0.04 0.00 0.02 0.07 0.04 0.03 0.01 0.00 0.00 0.00 0.00 0.00 0.00 0.00 0.00 0.00 0.00 0.00 0.00 0.00 0.00 0.01 0.01 0.02 0.03 0.03 0.00 0.02 0.00 0.00 0.00 0.00 0.00 0.02 0.03 0.02 0.02 0.02 0.00 0.00 0.00
0.00 0.00 0.00 0.00 0.00 0.08 0.12 0.07 0.05 0.03 0.00 0.02 0.06 0.03 0.03 0.00 0.00 0.00 0.00 0.00 0.00 0.00 0.00 0.00 0.00 0.00 0.00 0.00 0.00 0.01 0.02 0.02 0.02 0.02 0.00 0.02 0.00 0.00 0.00 0.00 0.00 0.03 0.02 0.00 0.00 0.00 0.00 0.01 0.02
0.00 0.00 0.00 0.01 0.00 0.03 0.02 0.02 0.01 0.01 0.00 0.00 0.01 0.01 0.00 0.01 0.01 0.00 0.00 0.00 0.00 0.00 0.00 0.00 0.00 0.00 0.00 0.01 0.00 0.02 0.01 0.01 0.00 0.00 0.00 0.02 0.00 0.00 0.00 0.00 0.00 0.00 0.00 0.00 0.00 0.00 0.01 0.00 0.01
0.00 0.00 0.00 0.00 0.00 0.00 0.01 0.01 0.00 0.00 0.00 0.00 0.00 0.00 0.00 0.01 0.01 0.01 0.00 0.00 0.00 0.00 0.01 0.01 0.00 0.00 0.00 0.00 0.00 0.00 0.00 0.00 0.01 0.00 0.00 0.01 0.00 0.00 0.00 0.00 0.00 0.00 0.00 0.00 0.00 0.00 0.00 0.00 0.00
0.00 0.00 0.00 0.00 0.00 0.00 0.00 0.00 0.00 0.00 0.00 0.00 0.00 0.00 0.00 0.00 0.00 0.00 0.01 0.01 0.01 0.00 0.10 0.03 0.00 0.00 0.00 0.00 0.00 0.00 0.00 0.00 0.02 0.06 0.02 0.00 0.00 0.00 0.00 0.00 0.00 0.00 0.00 0.00 0.00 0.00 0.00 0.00 0.00
0.00 0.00 0.00 0.00 0.00 0.00 0.00 0.00 0.00 0.00 0.00 0.00 0.00 0.00 0.00 0.00 0.00 0.00 0.00 0.00 0.00 0.00 0.01 0.00 0.00 0.00 0.00 0.00 0.00 0.00 0.00 0.01 0.00 0.01 0.01 0.00 0.00 0.00 0.00 0.00 0.00 0.00 0.00 0.00 0.00 0.00 0.00 0.00 0.00
0.00 0.00 0.00 0.00 0.00 0.00 0.00 0.00 0.01 0.00 0.00 0.01 0.00 0.00 0.00 0.00 0.00 0.00 0.00 0.01 0.00 0.00 0.01 0.00 0.00 0.00 0.00 0.00 0.00 0.00 0.02 0.03 0.00 0.00 0.01 0.00 0.00 0.00 0.00 0.00 0.00 0.00 0.00 0.00 0.01 0.00 0.00 0.00 0.00
0.00 0.00 0.00 0.00 0.00 0.00 0.00 0.00 0.01 0.00 0.00 0.00 0.00 0.00 0.00 0.00 0.00 0.00 0.00 0.01 0.00 0.00 0.01 0.02 0.01 0.01 0.00 0.00 0.00 0.00 0.00 0.00 0.00 0.00 0.01 0.01 0.00 0.00 0.00 0.00 0.00 0.00 0.02 0.03 0.00 0.00 0.01 0.01 0.00
0.00 0.00 0.00 0.00 0.00 0.00 0.00 0.00 0.00 0.00 0.01 0.01 0.00 0.00 0.00 0.00 0.00 0.00 0.01 0.01 0.00 0.01 0.01 0.02 0.02 0.01 0.00 0.00 0.00 0.00 0.00 0.00 0.00 0.00 0.00 0.04 0.02 0.00 0.00 0.00 0.03 0.04 0.02 0.02 0.01 0.00 0.00 0.00 0.00
0.00 0.00 0.00 0.00 0.00 0.00 0.00 0.00 0.00 0.00 0.02 0.01 0.00 0.00 0.00 0.00 0.01 0.01 0.02 0.02 0.02 0.02 0.01 0.01 0.03 0.05 0.02 0.00 0.00 0.00 0.00 0.00 0.00 0.00 0.01 0.04 0.04 0.01 0.00 0.00 0.00 0.01 0.02 0.05 0.02 0.01 0.01 0.00 0.00
0.00 0.00 0.00 0.00 0.00 0.00 0.00 0.00 0.00 0.00 0.00 0.01 0.00 0.02 0.02 0.01 0.00 0.00 0.02 0.01 0.02 0.03 0.00 0.00 0.02 0.04 0.10 0.01 0.00 0.02 0.01 0.00 0.00 0.00 0.00 0.01 0.07 0.07 0.02 0.00 0.02 0.07 0.03 0.04 0.02 0.01 0.00 0.00 0.00
MSLP
1010.69 1010.61 1011.06 1011.50 1012.36 1011.96 1011.01 1009.91 1008.94 1008.59 1008.77 1009.48 1009.32 1010.14 1011.85 1012.31 1013.08 1014.34 1014.44 1014.67 1014.92 1015.25 1015.23 1015.29 1015.30 1015.35 1015.37 1015.39 1015.45 1015.48 1015.53 1015.53 1015.62 1015.72 1015.99 1016.20 1016.39 1016.48 1016.60 1016.71 1016.97 1017.08 1017.19 1017.31 1017.45 1017.72 1018.03 1018.19 1018.17
1010.54 1010.72 1011.11 1011.49 1012.66 1012.34 1010.66 1009.63 1009.01 1008.76 1009.32 1009.27 1009.98 1010.79 1011.70 1013.08 1013.54 1014.20 1014.74 1014.76 1014.85 1015.05 1015.24 1015.27 1015.40 1015.38 1015.52 1015.57 1015.65 1015.71 1015.79 1015.86 1015.98 1016.07 1016.15 1016.37 1016.58 1016.73 1016.89 1017.10 1017.18 1017.36 1017.53 1017.48 1017.57 1017.82 1018.04 1018.20 1018.38
1010.72 1010.76 1011.78 1012.61 1013.40 1013.22 1011.47 1009.67 1008.97 1008.85 1009.13 1009.11 1010.40 1011.07 1012.18 1013.46 1013.98 1014.31 1014.59 1014.77 1014.94 1015.27 1015.31 1015.41 1015.43 1015.52 1015.58 1015.59 1015.71 1015.81 1015.89 1016.05 1016.18 1016.36 1016.46 1016.60 1016.78 1017.05 1017.21 1017.45 1017.55 1017.55 1017.56 1017.59 1017.69 1017.94 1018.09 1018.22 1018.49
1011.16 1011.63 1012.77 1012.96 1013.09 1012.82 1012.22 1011.03 1009.66 1009.02 1009.42 1009.66 1010.49 1011.90 1012.91 1013.25 1013.69 1014.11 1014.73 1014.74 1015.16 1015.36 1015.42 1015.47 1015.53 1015.62 1015.77 1015.77 1015.84 1015.90 1015.97 1016.12 1016.30 1016.42 1016.68 1016.89 1016.98 1017.14 1017.51 1017.78 1017.86 1017.73 1017.80 1017.69 1017.85 1018.11 1018.21 1018.34 1018.51
1011.83 1012.91 1013.76 1013.97 1013.68 1012.82 1012.06 1011.47 1009.77 1009.15 1009.67 1010.10 1010.49 1012.55 1013.22 1013.65 1013.80 1014.32 1014.84 1015.08 1015.24 1015.53 1015.51 1015.60 1015.69 1015.78 1015.83 1015.91 1015.97 1015.96 1016.12 1016.36 1016.58 1016.56 1016.80 1017.03 1017.17 1017.30 1017.79 1018.05 1018.11 1018.02 1018.09 1017.97 1018.17 1018.13 1018.20 1018.35 1018.60
1012.69 1013.85 1014.88 1014.34 1014.29 1013.12 1012.08 1011.19 1009.92 1009.52 1009.83 1010.59 1011.59 1012.33 1013.85 1014.19 1014.24 1014.72 1014.88 1015.27 1015.34 1015.63 1015.74 1015.78 1015.86 1015.98 1016.03 1016.09 1016.09 1016.20 1016.40 1016.57 1016.71 1016.70 1017.02 1017.28 1017.47 1017.70 1017.96 1018.13 1018.26 1018.25 1018.30 1018.36 1018.34 1018.05 1018.20 1018.30 1018.61
1014.42 1014.85 1014.99 1014.82 1013.81 1013.19 1011.98 1011.38 1010.36 1009.83 1009.83 1010.46 1011.15 1012.57 1014.17 1014.51 1014.69 1014.79 1015.14 1015.55 1015.64 1015.74 1015.90 1016.03 1016.04 1016.06 1016.19 1016.35 1016.35 1016.49 1016.70 1016.76 1016.96 1017.09 1017.26 1017.47 1017.70 1017.87 1018.07 1018.20 1018.23 1018.43 1018.69 1018.60 1018.50 1018.20 1018.31 1018.47 1018.69
1014.22 1014.89 1014.99 1014.76 1013.96 1012.83 1011.80 1011.49 1009.91 1009.15 1009.71 1010.44 1010.87 1012.53 1013.80 1014.30 1014.68 1015.01 1015.52 1015.93 1016.11 1016.11 1016.05 1016.26 1016.41 1016.55 1016.57 1016.54 1016.62 1016.79 1016.86 1016.90 1017.14 1017.34 1017.54 1017.53 1017.81 1018.04 1018.23 1018.37 1018.44 1018.73 1018.84 1018.81 1018.74 1018.74 1018.74 1018.86 1018.78
1013.94 1014.77 1014.34 1014.19 1013.59 1012.64 1011.91 1011.76 1010.86 1009.79 1009.75 1010.21 1010.31 1011.51 1012.77 1013.83 1014.57 1015.23 1015.81 1016.15 1016.19 1016.33 1016.36 1016.34 1016.59 1016.81 1016.83 1016.75 1016.80 1016.98 1017.04 1017.15 1017.39 1017.54 1017.68 1017.82 1018.10 1018.24 1018.52 1018.57 1018.57 1018.82 1018.98 1018.94 1019.00 1019.18 1019.09 1018.73 1018.62
1012.64 1013.18 1012.48 1012.43 1012.31 1012.14 1011.92 1012.02 1011.52 1010.57 1010.64 1010.80 1011.48 1012.47 1013.21 1013.83 1014.54 1015.06 1015.62 1015.95 1016.42 1016.52 1016.69 1016.68 1016.79 1016.97 1016.92 1016.93 1017.36 1017.47 1017.54 1017.75 1018.07 1018.10 1018.15 1018.16 1018.36 1018.55 1018.57 1018.50 1018.59 1018.95 1019.09 1018.95 1019.06 1019.20 1019.25 1018.86 1018.78
1010.96 1011.44 1011.30 1011.28 1011.56 1011.36 1011.90 1012.19 1011.77 1011.27 1011.28 1010.47 1011.33 1012.46 1013.12 1013.75 1014.54 1014.93 1015.41 1015.61 1016.01 1016.44 1016.73 1016.94 1016.85 1017.16 1017.34 1017.46 1017.69 1017.82 1018.00 1018.04 1018.17 1018.23 1018.33 1018.50 1018.55 1018.62 1018.66 1018.52 1018.56 1019.05 1019.16 1018.93 1018.98 1019.26 1019.30 1018.87 1018.81
1009.75 1010.12 1009.89 1010.58 1011.08 1011.33 1011.98 1011.90 1011.64 1011.32 1011.05 1011.03 1011.19 1011.87 1012.54 1013.35 1014.32 1014.81 1015.20 1015.92 1016.36 1016.34 1016.80 1017.07 1017.16 1017.27 1017.63 1017.61 1017.62 1017.71 1017.84 1017.90 1018.02 1018.39 1018.60 1018.84 1018.78 1018.82 1018.73 1018.77 1018.78 1019.13 1019.30 1019.02 1018.94 1019.45 1019.35 1018.53 1018.82
1009.89 1010.73 1010.02 1010.38 1011.10 1011.33 1011.78 1012.00 1011.86 1011.77 1011.63 1011.43 1011.75 1012.06 1012.43 1013.01 1014.05 1014.75 1014.83 1015.72 1016.36 1016.50 1016.94 1017.12 1017.20 1017.36 1017.55 1017.67 1017.76 1017.81 1017.98 1017.84 1018.16 1018.36 1018.66 1018.84 1018.86 1019.03 1019.03 1018.93 1018.83 1019.16 1019.13 1018.84 1018.74 1018.79 1019.59 1018.75 1018.40
1009.99 1010.58 1010.88 1011.08 1011.35 1011.63 1011.82 1012.29 1012.16 1012.54 1012.25 1011.72 1011.79 1011.86 1011.97 1012.78 1013.56 1014.69 1015.24 1015.60 1016.23 1016.40 1016.67 1017.09 1017.37 1017.51 1017.54 1017.72 1017.74 1017.81 1018.18 1018.19 1018.45 1018.30 1018.58 1018.44 1018.66 1018.93 1019.05 1019.04 1018.74 1018.94 1018.98 1018.59 1018.63 1018.50 1018.69 1018.87 1018.89
1010.50 1011.20 1011.59 1011.39 1011.17 1011.57 1011.97 1012.87 1012.69 1012.84 1012.98 1012.23 1011.74 1011.74 1011.55 1012.13 1013.11 1013.68 1014.53 1015.05 1015.57 1016.10 1016.49 1017.06 1017.42 1017.43 1017.61 1017.77 1017.98 1018.12 1018.10 1018.36 1018.40 1018.37 1018.15 1018.13 1018.54 1018.86 1018.99 1019.25 1019.13 1018.90 1018.95 1018.77 1018.53 1018.50 1018.48 1018.77 1018.86
1011.06 1011.85 1012.17 1011.53 1010.78 1011.24 1011.84 1012.96 1013.03 1013.14 1012.78 1012.69 1012.04 1011.72 1011.67 1011.91 1012.15 1012.85 1013.85 1014.66 1015.36 1015.97 1016.28 1016.72 1017.09 1017.54 1017.98 1017.82 1017.86 1017.92 1018.06 1018.41 1018.12 1018.11 1018.35 1018.07 1018.40 1018.73 1018.88 1019.22 1019.22 1018.90 1018.88 1019.08 1018.58 1018.62 1018.58 1018.52 1018.71
1012.09 1012.30 1012.34 1012.26 1011.94 1011.96 1012.16 1013.05 1013.30 1013.47 1013.10 1013.52 1012.43 1012.00 1011.76 1012.24 1012.57 1013.00 1013.60 1014.31 1014.90 1015.48 1015.98 1016.43 1016.77 1017.06 1017.54 1017.68 1017.73 1017.79 1017.83 1018.30 1018.36 1018.21 1018.50 1018.26 1018.34 1018.54 1018.53 1018.90 1019.12 1018.97 1019.16 1019.07 1019.08 1018.97 1019.05 1018.77 1018.49
1011.20 1011.69 1011.73 1011.66 1011.76 1012.24 1012.31 1012.95 1013.48 1013.62 1013.67 1013.61 1012.79 1012.39 1012.25 1012.40 1012.17 1012.49 1013.29 1013.89 1014.38 1015.16 1015.68 1016.03 1016.25 1016.90 1017.31 1017.73 1017.92 1018.08 1018.15 1018.00 1018.10 1018.40 1018.35 1018.17 1018.39 1018.14 1018.33 1018.43 1018.87 1019.06 1019.05 1019.32 1019.45 1019.02 1019.08 1018.98 1019.01
1009.55 1010.43 1010.83 1011.12 1011.42 1011.85 1012.31 1012.68 1012.72 1012.94 1013.50 1013.72 1013.55 1012.38 1012.35 1012.17 1012.12 1012.42 1012.96 1013.31 1014.19 1014.72 1015.26 1015.76 1016.04 1016.47 1017.18 1017.47 1017.94 1018.19 1018.27 1018.15 1017.99 1018.07 1018.31 1018.25 1017.96 1017.69 1018.21 1018.42 1018.84 1019.06 1019.19 1019.57 1019.67 1019.53 1019.38 1019.23 1019.48
1008.99 1009.56 1010.11 1010.83 1011.25 1011.64 1012.61 1012.65 1011.88 1011.65 1011.80 1012.22 1013.02 1013.01 1012.35 1011.98 1012.04 1012.36 1012.50 1012.89 1013.42 1014.01 1014.54 1015.24 1015.68 1016.13 1016.65 1017.08 1017.11 1017.34 1017.60 1017.65 1017.58 1018.06 1018.26 1017.68 1017.61 1017.78 1018.27 1018.51 1018.91 1019.02 1019.21 1019.50 1019.48 1019.50 1019.55 1019.60 1019.38
1008.42 1008.54 1009.09 1009.95 1011.27 1011.59 1012.29 1012.61 1012.40 1011.41 1011.44 1011.52 1011.92 1012.34 1011.97 1011.84 1012.18 1012.24 1012.40 1012.66 1013.11 1013.61 1014.09 1014.64 1015.14 1015.61 1015.91 1016.52 1016.90 1017.25 1017.65 1017.51 1018.13 1018.71 1018.70 1018.20 1017.91 1018.23 1018.08 1018.71 1019.11 1018.85 1018.91 1019.28 1019.19 1019.34 1019.28 1019.75 1019.70
1007.37 1006.89 1007.89 1009.18 1010.12 1011.35 1011.77 1012.51 1012.29 1011.73 1011.70 1011.50 1010.80 1009.99 1010.96 1010.96 1011.48 1012.11 1011.93 1012.39 1012.67 1013.10 1013.61 1013.95 1014.39 1015.02 1015.51 1015.95 1016.56 1017.06 1017.52 1017.74 1017.61 1018.18 1018.53 1018.57 1018.33 1018.21 1018.61 1018.85 1018.84 1018.61 1018.76 1019.09 1019.00 1019.06 1019.17 1019.55 1019.81
1005.82 1005.83 1006.76 1008.17 1009.20 1010.40 1011.93 1012.64 1011.06 1010.93 1010.73 1010.42 1010.06 1010.11 1010.36 1010.59 1010.50 1011.16 1011.29 1011.66 1012.17 1012.69 1013.20 1013.59 1014.22 1014.68 1014.99 1015.58 1015.98 1016.64 1017.12 1017.35 1017.21 1017.34 1018.01 1018.52 1018.43 1018.37 1017.97 1017.95 1018.20 1018.53 1018.57 1018.66 1018.83 1018.87 1019.11 1019.25 1019.59
1004.36 1005.28 1006.54 1007.78 1009.30 1010.34 1010.73 1011.27 1011.15 1010.55 1008.56 1009.25 1009.27 1009.38 1009.60 1009.98 1010.22 1010.66 1011.02 1011.32 1011.82 1012.33 1012.79 1013.34 1014.12 1014.42 1014.70 1015.14 1015.61 1016.14 1016.67 1017.08 1017.41 1017.52 1017.81 1017.89 1017.98 1017.86 1017.63 1017.76 1017.91 1018.06 1018.23 1018.44 1018.58 1018.72 1018.88 1018.96 1019.17
1004.41 1006.31 1007.94 1009.34 1010.25 1010.43 1009.96 1010.04 1009.33 1008.29 1008.03 1007.76 1008.24 1008.33 1008.83 1009.14 1009.71 1010.60 1011.14 1011.60 1011.78 1012.06 1012.40 1013.00 1013.63 1014.32 1014.47 1014.77 1015.28 1015.63 1016.16 1016.47 1016.92 1017.08 1017.43 1017.69 1017.55 1017.60 1017.52 1017.49 1017.81 1018.01 1018.02 1018.04 1018.15 1018.39 1018.56 1018.72 1018.76
1004.69 1006.25 1008.17 1009.62 1010.71 1010.28 1009.68 1008.98 1007.73 1006.69 1006.63 1006.70 1007.62 1008.04 1008.50 1009.19 1009.43 1009.99 1010.62 1011.07 1011.39 1011.86 1012.22 1012.66 1013.26 1013.58 1013.97 1014.24 1014.73 1015.15 1015.60 1016.13 1016.57 1016.58 1016.86 1017.02 1016.97 1016.94 1016.92 1017.23 1017.56 1017.68 1017.81 1017.94 1017.94 1018.02 1018.10 1018.31 1018.42
1004.46 1005.82 1006.48 1009.12 1010.44 1010.38 1009.50 1008.56 1007.17 1006.26 1006.47 1006.45 1007.31 1007.99 1008.22 1008.72 1008.98 1009.35 1010.35 1010.80 1010.98 1011.38 1011.87 1012.40 1012.81 1013.17 1013.50 1013.62 1014.02 1014.52 1015.05 1015.44 1015.89 1016.23 1016.27 1016.57 1016.58 1016.61 1016.76 1016.81 1017.40 1017.47 1017.52 1017.70 1017.90 1018.03 1017.92 1018.00 1018.03
1003.38 1004.50 1006.74 1008.87 1010.29 1010.48 1009.56 1008.63 1007.38 1006.86 1006.87 1006.48 1006.62 1007.48 1007.90 1008.32 1008.82 1009.14 1009.68 1010.12 1010.39 1010.52 1011.35 1012.21 1012.59 1012.73 1012.63 1013.10 1013.47 1013.78 1014.45 1014.84 1015.35 1015.74 1016.08 1016.20 1016.23 1016.43 1016.54 1016.74 1016.97 1017.26 1017.36 1017.63 1017.97 1018.08 1017.92 1017.94 1018.01
1003.43 1004.37 1006.05 1007.55 1008.77 1009.29 1009.23 1008.23 1006.17 1005.78 1005.96 1006.05 1006.66 1006.73 1007.83 1007.95 1008.44 1008.64 1009.12 1009.70 1009.79 1010.18 1010.97 1011.37 1012.14 1012.29 1012.70 1012.95 1012.96 1013.32 1013.80 1014.35 1014.91 1015.26 1015.52 1015.79 1016.00 1016.14 1016.40 1016.49 1016.69 1016.90 1017.14 1017.29 1017.59 1017.73 1017.83 1017.99 1017.91
1002.30 1003.24 1004.78 1007.24 1008.00 1008.13 1007.96 1006.76 1005.28 1005.25 1005.16 1005.49 1006.28 1006.80 1007.21 1007.56 1007.62 1008.01 1008.45 1008.97 1009.38 1009.86 1010.47 1010.95 1011.19 1011.69 1012.04 1012.31 1012.65 1012.87 1013.18 1013.81 1014.33 1014.52 1014.74 1015.22 1015.35 1015.49 1015.91 1016.07 1016.40 1016.62 1016.84 1017.02 1017.25 1017.70 1017.63 1017.85 1017.86
Thickness
5802 5801 5797 5785 5754 5751 5748 5761 5785 5780 5779 5785 5790 5778 5759 5763 5757 5738 5766 5768 5767 5765 5765 5766 5767 5768 5770 5772 5773 5774 5774 5776 5777 5777 5775 5773 5772 5770 5768 5767 5764 5761 5759 5759 5758 5753 5747 5744 5744
5804 5803 5794 5778 5744 5730 5749 5775 5774 5782 5783 5790 5783 5775 5764 5749 5762 5758 5757 5766 5765 5765 5765 5766 5765 5768 5768 5770 5772 5772 5772 5772 5773 5773 5773 5771 5770 5768 5766 5764 5763 5760 5758 5759 5757 5752 5749 5747 5745
5803 5801 5772 5755 5736 5722 5741 5779 5781 5788 5793 5791 5774 5777 5763 5748 5759 5759 5765 5766 5765 5763 5763 5763 5763 5765 5767 5770 5771 5772 5772 5770 5771 5771 5771 5770 5769 5766 5765 5762 5761 5761 5760 5760 5757 5754 5752 5751 5747
5793 5784 5767 5742 5736 5747 5747 5765 5783 5786 5789 5790 5779 5756 5763 5769 5763 5766 5764 5765 5763 5761 5760 5760 5762 5764 5766 5768 5769 5771 5771 5770 5770 5770 5769 5767 5768 5766 5764 5760 5759 5760 5760 5760 5757 5754 5753 5751 5749
5784 5764 5737 5732 5736 5752 5761 5768 5789 5782 5780 5778 5780 5752 5752 5764 5769 5767 5763 5762 5760 5759 5759 5759 5761 5763 5765 5766 5768 5770 5770 5768 5768 5770 5768 5766 5767 5767 5762 5758 5757 5760 5760 5759 5755 5755 5755 5754 5750
5761 5753 5721 5719 5726 5746 5761 5773 5785 5784 5780 5774 5765 5759 5749 5764 5763 5761 5764 5761 5760 5758 5757 5758 5759 5760 5763 5765 5767 5768 5767 5767 5767 5769 5766 5764 5765 5764 5761 5759 5757 5759 5758 5758 5756 5761 5758 5757 5753
5740 5721 5726 5726 5735 5741 5759 5773 5776 5777 5776 5773 5778 5753 5750 5756 5760 5761 5761 5759 5759 5759 5758 5758 5760 5762 5763 5764 5765 5765 5764 5764 5764 5764 5763 5763 5762 5762 5760 5760 5760 5759 5756 5756 5758 5763 5762 5760 5757
5735 5723 5726 5728 5732 5740 5760 5764 5789 5789 5778 5788 5786 5751 5744 5757 5760 5759 5757 5756 5757 5759 5760 5759 5759 5760 5760 5761 5760 5760 5761 5762 5761 5759 5759 5761 5760 5760 5758 5758 5759 5756 5756 5757 5759 5761 5763 5761 5761
5757 5725 5720 5729 5729 5747 5762 5755 5779 5795 5785 5785 5791 5777 5772 5768 5761 5756 5753 5754 5756 5757 5758 5758 5757 5756 5757 5759 5758 5757 5758 5759 5758 5757 5757 5758 5758 5756 5756 5757 5758 5757 5756 5759 5759 5759 5765 5765 5766
5756 5735 5747 5757 5758 5751 5762 5759 5765 5773 5773 5774 5773 5775 5772 5767 5760 5755 5753 5753 5752 5754 5755 5757 5756 5756 5755 5755 5752 5752 5753 5753 5751 5753 5752 5755 5754 5754 5756 5760 5760 5756 5756 5762 5761 5761 5763 5766 5765
5769 5749 5769 5772 5770 5773 5760 5754 5763 5763 5758 5773 5766 5767 5767 5764 5757 5759 5756 5757 5755 5755 5755 5755 5755 5754 5752 5750 5747 5746 5746 5749 5748 5747 5747 5748 5751 5753 5756 5762 5762 5759 5758 5764 5763 5764 5763 5766 5766
5769 5783 5788 5782 5775 5767 5757 5764 5758 5768 5768 5778 5779 5777 5771 5764 5756 5758 5756 5754 5753 5757 5756 5756 5755 5754 5751 5748 5745 5745 5746 5747 5746 5743 5745 5748 5750 5751 5756 5760 5762 5760 5759 5763 5769 5766 5764 5772 5771
5769 5765 5785 5784 5773 5769 5767 5760 5761 5762 5773 5778 5776 5776 5772 5767 5760 5760 5764 5758 5754 5754 5754 5755 5755 5755 5752 5750 5746 5746 5746 5748 5748 5747 5748 5750 5752 5752 5756 5761 5763 5762 5764 5768 5772 5773 5763 5772 5776
5778 5770 5773 5773 5771 5769 5763 5756 5762 5758 5767 5774 5771 5769 5775 5769 5767 5760 5759 5757 5754 5756 5756 5755 5754 5754 5753 5751 5749 5750 5748 5749 5749 5754 5754 5759 5760 5758 5759 5762 5767 5766 5766 5772 5772 5777 5774 5770 5773
5776 5759 5759 5764 5770 5768 5767 5740 5747 5758 5759 5766 5774 5771 5775 5772 5773 5769 5765 5762 5759 5757 5758 5755 5753 5752 5752 5751 5749 5748 5751 5750 5751 5756 5761 5764 5763 5761 5761 5761 5766 5770 5769 5772 5776 5777 5776 5772 5774
5757 5751 5738 5761 5774 5775 5764 5731 5747 5754 5758 5756 5769 5770 5773 5773 5777 5778 5773 5768 5762 5758 5757 5757 5757 5753 5750 5750 5750 5751 5753 5752 5755 5759 5760 5766 5765 5764 5764 5761 5765 5771 5773 5772 5777 5777 5777 5779 5777
5744 5729 5734 5743 5761 5761 5754 5734 5743 5750 5752 5744 5761 5768 5771 5767 5771 5776 5774 5769 5768 5764 5761 5758 5760 5758 5753 5750 5751 5754 5757 5754 5755 5760 5761 5765 5766 5767 5767 5763 5765 5771 5772 5774 5773 5774 5773 5774 5776
5729 5730 5743 5740 5753 5751 5749 5740 5743 5743 5744 5743 5754 5765 5766 5763 5773 5776 5775 5773 5771 5765 5764 5763 5761 5758 5755 5752 5751 5750 5756 5759 5760 5762 5764 5766 5765 5768 5768 5769 5766 5768 5771 5770 5769 5772 5774 5773 5771
5763 5750 5748 5754 5758 5750 5749 5747 5747 5749 5744 5738 5743 5758 5762 5765 5772 5776 5777 5775 5771 5769 5765 5764 5762 5760 5756 5755 5752 5749 5751 5757 5761 5764 5764 5766 5769 5770 5767 5769 5768 5767 5768 5768 5768 5769 5771 5770 5772
5761 5753 5751 5754 5758 5753 5740 5735 5757 5762 5761 5756 5746 5746 5759 5768 5769 5772 5777 5776 5775 5775 5772 5768 5767 5763 5759 5757 5760 5759 5759 5760 5764 5763 5763 5767 5769 5769 5766 5764 5764 5766 5767 5768 5768 5770 5770 5770 5774
5758 5753 5755 5753 5751 5751 5741 5734 5745 5763 5764 5765 5764 5761 5767 5768 5762 5768 5775 5775 5774 5774 5775 5772 5769 5768 5766 5761 5759 5759 5760 5761 5757 5753 5756 5761 5764 5764 5767 5762 5761 5767 5768 5768 5771 5772 5772 5767 5773
5742 5782 5778 5761 5746 5721 5748 5718 5731 5749 5752 5759 5771 5776 5771 5775 5775 5768 5776 5775 5777 5776 5775 5774 5775 5771 5768 5766 5760 5755 5753 5752 5758 5757 5757 5758 5759 5761 5760 5761 5762 5767 5768 5768 5772 5774 5771 5771 5770
5767 5793 5782 5770 5754 5739 5728 5716 5740 5754 5752 5761 5773 5777 5780 5781 5785 5778 5781 5781 5779 5780 5776 5774 5771 5771 5769 5764 5763 5756 5753 5756 5761 5763 5758 5758 5759 5760 5765 5767 5766 5767 5769 5771 5771 5772 5768 5771 5770
5803 5790 5770 5764 5746 5722 5737 5733 5730 5738 5773 5772 5780 5782 5784 5783 5787 5783 5789 5786 5782 5782 5779 5774 5769 5770 5771 5767 5764 5760 5756 5754 5755 5758 5755 5759 5763 5766 5768 5767 5768 5769 5769 5770 5771 5771 5770 5770 5772
5789 5745 5705 5710 5708 5713 5744 5744 5744 5775 5783 5787 5782 5787 5785 5788 5788 5779 5778 5781 5781 5781 5781 5774 5771 5768 5771 5768 5764 5763 5760 5759 5756 5758 5757 5755 5760 5761 5765 5767 5768 5768 5766 5768 5770 5773 5773 5772 5774
5765 5745 5704 5705 5697 5721 5750 5730 5752 5790 5799 5800 5792 5788 5786 5781 5784 5781 5779 5780 5782 5782 5782 5780 5774 5773 5773 5770 5766 5765 5763 5760 5757 5759 5758 5758 5763 5766 5766 5766 5765 5767 5767 5767 5768 5772 5776 5777 5776
5766 5745 5761 5717 5720 5709 5730 5751 5773 5792 5789 5794 5788 5783 5782 5783 5784 5785 5779 5779 5782 5782 5783 5779 5775 5771 5771 5771 5770 5768 5766 5762 5760 5759 5760 5758 5762 5766 5766 5766 5765 5765 5766 5767 5766 5768 5773 5775 5777
5778 5781 5742 5715 5699 5700 5720 5734 5733 5761 5770 5786 5789 5779 5780 5783 5782 5783 5781 5780 5784 5788 5784 5776 5774 5771 5775 5773 5770 5770 5769 5765 5761 5760 5757 5759 5762 5763 5763 5764 5766 5766 5766 5763 5763 5765 5769 5770 5770
5769 5761 5756 5742 5725 5706 5701 5720 5768 5776 5776 5784 5788 5789 5778 5781 5781 5786 5785 5783 5788 5788 5782 5778 5769 5771 5771 5769 5770 5770 5768 5765 5760 5757 5758 5759 5760 5760 5758 5760 5763 5763 5763 5764 5763 5763 5764 5764 5766
5789 5775 5757 5722 5736 5736 5722 5734 5788 5786 5796 5796 5791 5788 5783 5785 5788 5789 5789 5788 5787 5784 5780 5776 5774 5772 5770 5770 5769 5769 5768 5765 5762 5760 5760 5759 5762 5763 5759 5759 5758 5758 5760 5761 5760 5758 5762 5758 5761